FW0860 Weather Reports


Display with metric or nautical units.
time (UTC)temp
F
wind
direction
speed
MPH
gust
MPH
rain 1hr
in
rain 24hr
in
rain mn
in
humidity
%
barometer
mb
20260505003027 77 285 1.0 5.0 0.00 0.00 0.00 40 1010.7
20260505002937 77 285 2.0 5.0 0.00 0.00 0.00 40 1010.6
20260505002818 77 276 1.0 7.0 0.00 0.00 0.00 40 1010.6
20260505002719 77 273 0.0 7.0 0.00 0.00 0.00 41 1010.6
20260505002628 77 195 1.0 7.0 0.00 0.00 0.00 41 1010.5
20260505002530 77 195 1.0 7.0 0.00 0.00 0.00 41 1010.7
20260505002416 77 194 1.0 7.0 0.00 0.00 0.00 41 1010.7
20260505002318 77 194 1.0 7.0 0.00 0.00 0.00 40 1010.6
20260505002226 77 239 2.0 7.0 0.00 0.00 0.00 40 1010.7
20260505002128 77 241 1.0 7.0 0.00 0.00 0.00 40 1010.8
20260505002037 77 243 1.0 7.0 0.00 0.00 0.00 40 1010.8
20260505001919 77 229 2.0 5.0 0.00 0.00 0.00 40 1010.8
20260505001825 77 236 2.0 6.0 0.00 0.00 0.00 40 1010.7
20260505001754 77 221 2.0 6.0 0.00 0.00 0.00 40 1010.7
20260505001635 77 193 2.0 7.0 0.00 0.00 0.00 40 1010.7
20260505001516 77 193 2.0 7.0 0.00 0.00 0.00 40 1010.7
20260505001425 77 250 2.0 7.0 0.00 0.00 0.00 40 1010.8
20260505001328 77 253 1.0 7.0 0.00 0.00 0.00 40 1010.8
20260505001235 77 250 1.0 7.0 0.00 0.00 0.00 40 1010.7
20260505001118 77 250 2.0 7.0 0.00 0.00 0.00 40 1010.7
20260505001027 77 246 3.0 7.0 0.00 0.00 0.00 40 1010.7
20260505000929 77 221 2.0 7.0 0.00 0.00 0.00 40 1010.7
20260505000839 77 236 2.0 7.0 0.00 0.00 0.00 40 1010.6
20260505000720 77 251 1.0 7.0 0.00 0.00 0.00 40 1010.7
20260505000624 77 250 1.0 7.0 0.00 0.00 0.00 40 1010.6
20260505000554 77 250 1.0 8.0 0.00 0.00 0.00 40 1010.7
20260505000434 77 250 3.0 8.0 0.00 0.00 0.00 40 1010.7
20260505000316 77 248 3.0 9.0 0.00 0.00 0.00 40 1010.7
20260505000244 77 245 1.0 9.0 0.00 0.00 0.00 40 1010.7
20260505000125 77 296 0.0 9.0 0.00 0.00 0.00 40 1010.7
20260505000047 77 224 1.0 9.0 0.00 0.00 0.00 40 1010.7
20260504235941 77 234 2.0 9.0 0.00 0.00 0.00 39 1010.6
20260504235821 77 236 3.0 9.0 0.00 0.00 0.00 39 1010.6
20260504235731 77 208 3.0 9.0 0.00 0.00 0.00 39 1010.6
20260504235632 77 233 4.0 9.0 0.00 0.00 0.00 39 1010.7
20260504235540 77 222 4.0 9.0 0.00 0.00 0.00 39 1010.6
20260504235420 77 241 3.0 8.0 0.00 0.00 0.00 39 1010.7
20260504235325 77 267 3.0 8.0 0.00 0.00 0.00 39 1010.7
20260504235227 77 236 2.0 8.0 0.00 0.00 0.00 38 1010.7
20260504235135 77 225 2.0 8.0 0.00 0.00 0.00 38 1010.7
20260504235017 77 238 2.0 8.0 0.00 0.00 0.00 38 1010.8
20260504234919 77 240 3.0 8.0 0.00 0.00 0.00 38 1010.7
20260504234848 77 243 3.0 8.0 0.00 0.00 0.00 38 1010.7
20260504234735 77 244 3.0 8.0 0.00 0.00 0.00 38 1010.7
20260504234621 77 245 3.0 8.0 0.00 0.00 0.00 38 1010.7
20260504234543 77 212 2.0 8.0 0.00 0.00 0.00 38 1010.8
20260504234429 77 233 2.0 8.0 0.00 0.00 0.00 38 1010.8
20260504234331 77 248 2.0 8.0 0.00 0.00 0.00 38 1010.8
20260504234239 77 238 1.0 8.0 0.00 0.00 0.00 39 1010.7
20260504234141 77 219 1.0 8.0 0.00 0.00 0.00 38 1010.8
20260504234021 77 219 2.0 8.0 0.00 0.00 0.00 38 1010.7
20260504233934 77 214 4.0 8.0 0.00 0.00 0.00 38 1010.7
20260504233903 77 242 4.0 8.0 0.00 0.00 0.00 38 1010.7
20260504233743 77 233 3.0 8.0 0.00 0.00 0.00 38 1010.8
20260504233625 77 200 3.0 8.0 0.00 0.00 0.00 38 1010.7
20260504233531 77 212 3.0 8.0 0.00 0.00 0.00 37 1011.0
20260504233434 77 256 1.0 8.0 0.00 0.00 0.00 37 1010.9
20260504233315 77 229 3.0 8.0 0.00 0.00 0.00 36 1010.9
20260504233228 78 233 5.0 8.0 0.00 0.00 0.00 35 1010.9
20260504233131 78 257 4.0 8.0 0.00 0.00 0.00 36 1010.9
20260504233032 78 265 4.0 7.0 0.00 0.00 0.00 36 1011.0
20260504232942 78 191 3.0 7.0 0.00 0.00 0.00 36 1011.0
20260504232824 78 132 1.0 7.0 0.00 0.00 0.00 36 1010.9
20260504232747 78 132 2.0 7.0 0.00 0.00 0.00 36 1010.9
20260504232655 78 233 1.0 7.0 0.00 0.00 0.00 37 1010.8
20260504232546 78 229 1.0 9.0 0.00 0.00 0.00 37 1010.8
20260504232427 78 229 1.0 9.0 0.00 0.00 0.00 37 1010.7
20260504232329 78 228 1.0 9.0 0.00 0.00 0.00 37 1010.8
20260504232238 78 221 1.0 9.0 0.00 0.00 0.00 37 1010.8
20260504232120 78 235 1.0 9.0 0.00 0.00 0.00 36 1010.9
20260504232022 78 238 0.0 12.0 0.00 0.00 0.00 36 1010.9
20260504231951 78 237 0.0 12.0 0.00 0.00 0.00 36 1011.0
20260504231816 78 237 1.0 12.0 0.00 0.00 0.00 36 1011.0
20260504231718 78 229 1.0 12.0 0.00 0.00 0.00 36 1010.9
20260504231620 78 191 0.0 12.0 0.00 0.00 0.00 36 1010.9
20260504231529 78 190 0.0 12.0 0.00 0.00 0.00 36 1010.8
20260504231431 78 248 1.0 12.0 0.00 0.00 0.00 37 1010.8
20260504231337 78 252 3.0 12.0 0.00 0.00 0.00 37 1010.9
20260504231222 78 230 4.0 12.0 0.00 0.00 0.00 37 1011.0
20260504231124 77 226 2.0 9.0 0.00 0.00 0.00 38 1010.8
20260504231053 77 217 2.0 9.0 0.00 0.00 0.00 38 1010.8
20260504230935 77 231 2.0 9.0 0.00 0.00 0.00 38 1010.9
20260504230816 77 236 3.0 9.0 0.00 0.00 0.00 38 1010.8
20260504230746 77 252 3.0 9.0 0.00 0.00 0.00 38 1010.9
20260504230653 77 231 2.0 7.0 0.00 0.00 0.00 38 1010.9
20260504230518 77 240 2.0 7.0 0.00 0.00 0.00 39 1010.8
20260504230420 77 242 2.0 7.0 0.00 0.00 0.00 39 1010.8
20260504230321 77 246 2.0 8.0 0.00 0.00 0.00 39 1010.8
20260504230230 77 226 1.0 8.0 0.00 0.00 0.00 39 1010.7
20260504230132 77 260 1.0 10.0 0.00 0.00 0.00 39 1010.7
20260504230033 77 259 2.0 10.0 0.00 0.00 0.00 39 1010.8
20260504225927 77 290 2.0 10.0 0.00 0.00 0.00 39 1010.9
20260504225829 77 238 2.0 10.0 0.00 0.00 0.00 39 1010.8
20260504225736 77 253 2.0 10.0 0.00 0.00 0.00 39 1011.0
20260504225617 77 220 3.0 10.0 0.00 0.00 0.00 40 1011.0
20260504225519 77 251 3.0 10.0 0.00 0.00 0.00 39 1011.0
20260504225428 77 265 3.0 10.0 0.00 0.00 0.00 40 1011.0
20260504225350 77 248 3.0 10.0 0.00 0.00 0.00 40 1011.0
20260504225215 78 301 1.0 9.0 0.00 0.00 0.00 40 1010.9
20260504225124 78 268 1.0 9.0 0.00 0.00 0.00 40 1010.9
20260504225025 78 266 1.0 9.0 0.00 0.00 0.00 40 1011.0
20260504224934 77 297 1.0 9.0 0.00 0.00 0.00 40 1010.9
20260504224835 77 309 1.0 9.0 0.00 0.00 0.00 41 1010.9
20260504224716 78 280 3.0 9.0 0.00 0.00 0.00 40 1010.9
20260504224622 78 293 2.0 7.0 0.00 0.00 0.00 40 1011.0
20260504224531 78 273 1.0 7.0 0.00 0.00 0.00 40 1011.0
20260504224453 78 238 2.0 7.0 0.00 0.00 0.00 40 1011.0
20260504224320 77 245 2.0 7.0 0.00 0.00 0.00 40 1011.1
20260504224222 78 269 2.0 7.0 0.00 0.00 0.00 40 1011.0
20260504224123 78 251 3.0 6.0 0.00 0.00 0.00 40 1011.0
20260504224052 78 213 3.0 6.0 0.00 0.00 0.00 40 1011.0
20260504224000 78 212 1.0 5.0 0.00 0.00 0.00 40 1011.0
20260504223824 78 266 0.0 6.0 0.00 0.00 0.00 40 1011.0
20260504223726 78 268 0.0 6.0 0.00 0.00 0.00 41 1010.9
20260504223636 78 268 0.0 8.0 0.00 0.00 0.00 41 1011.0
20260504223518 78 268 0.0 8.0 0.00 0.00 0.00 41 1011.0
20260504223418 77 269 0.0 8.0 0.00 0.00 0.00 41 1011.0
20260504223324 77 274 0.0 8.0 0.00 0.00 0.00 42 1011.0
20260504223231 77 274 1.0 8.0 0.00 0.00 0.00 41 1011.0
20260504223138 77 236 2.0 8.0 0.00 0.00 0.00 41 1011.0
20260504223021 77 269 3.0 11.0 0.00 0.00 0.00 41 1011.1
20260504222922 77 235 2.0 11.0 0.00 0.00 0.00 41 1011.2
20260504222852 77 261 1.0 11.0 0.00 0.00 0.00 41 1011.1
20260504222733 77 209 1.0 11.0 0.00 0.00 0.00 41 1011.1
20260504222619 77 207 1.0 11.0 0.00 0.00 0.00 41 1011.1
20260504222521 77 282 2.0 11.0 0.00 0.00 0.00 40 1011.1
20260504222431 77 276 2.0 11.0 0.00 0.00 0.00 41 1011.1
20260504222332 77 264 2.0 11.0 0.00 0.00 0.00 41 1011.1
20260504222304 77 266 2.0 11.0 0.00 0.00 0.00 41 1011.1
20260504222122 77 251 1.0 8.0 0.00 0.00 0.00 42 1011.2
20260504222024 77 249 2.0 8.0 0.00 0.00 0.00 42 1011.2
20260504221937 77 230 2.0 8.0 0.00 0.00 0.00 42 1011.2
20260504221840 77 234 2.0 8.0 0.00 0.00 0.00 41 1011.2
20260504221720 77 254 2.0 8.0 0.00 0.00 0.00 41 1011.2
20260504221630 77 252 1.0 8.0 0.00 0.00 0.00 41 1011.2
20260504221531 77 251 0.0 3.0 0.00 0.00 0.00 41 1011.3
20260504221432 77 245 0.0 7.0 0.00 0.00 0.00 41 1011.3
20260504221324 77 247 0.0 7.0 0.00 0.00 0.00 41 1011.3
20260504221246 77 229 0.0 9.0 0.00 0.00 0.00 41 1011.3
20260504221134 77 219 0.0 9.0 0.00 0.00 0.00 41 1011.3
20260504221056 77 216 0.0 9.0 0.00 0.00 0.00 41 1011.4
20260504220921 77 220 0.0 9.0 0.00 0.00 0.00 41 1011.4
20260504220824 77 240 0.0 9.0 0.00 0.00 0.00 41 1011.2
20260504220725 77 234 1.0 9.0 0.00 0.00 0.00 41 1011.2
20260504220618 77 245 3.0 9.0 0.00 0.00 0.00 41 1011.3
20260504220521 77 245 3.0 9.0 0.00 0.00 0.00 41 1011.2
20260504220423 77 212 3.0 9.0 0.00 0.00 0.00 41 1011.2
20260504220352 77 246 3.0 9.0 0.00 0.00 0.00 40 1011.2
20260504220232 77 235 4.0 9.0 0.00 0.00 0.00 40 1011.4
20260504220142 77 219 3.0 9.0 0.00 0.00 0.00 41 1011.4
20260504220034 77 227 4.0 9.0 0.00 0.00 0.00 41 1011.4
20260504215935 77 238 3.0 9.0 0.00 0.00 0.00 41 1011.4
20260504215818 77 264 2.0 8.0 0.00 0.00 0.00 41 1011.4
20260504215740 77 258 2.0 8.0 0.00 0.00 0.00 41 1011.5
20260504215628 77 221 2.0 8.0 0.00 0.00 0.00 41 1011.6
20260504215531 77 219 2.0 8.0 0.00 0.00 0.00 41 1011.6
20260504215432 77 223 2.0 10.0 0.00 0.00 0.00 41 1011.7
20260504215318 77 232 1.0 10.0 0.00 0.00 0.00 42 1011.7
20260504215227 76 258 0.0 10.0 0.00 0.00 0.00 42 1011.6
20260504215128 76 258 1.0 10.0 0.00 0.00 0.00 42 1011.6
20260504215059 76 259 2.0 10.0 0.00 0.00 0.00 42 1011.6
20260504214930 76 230 3.0 10.0 0.00 0.00 0.00 42 1011.5
20260504214837 76 258 4.0 10.0 0.00 0.00 0.00 42 1011.5
20260504214718 76 231 5.0 10.0 0.00 0.00 0.00 42 1011.6
20260504214623 76 252 5.0 10.0 0.00 0.00 0.00 42 1011.6
20260504214532 76 227 4.0 10.0 0.00 0.00 0.00 42 1011.6
20260504214434 76 259 4.0 10.0 0.00 0.00 0.00 42 1011.7
20260504214337 76 233 5.0 10.0 0.00 0.00 0.00 42 1011.7
20260504214225 76 231 6.0 10.0 0.00 0.00 0.00 42 1011.8
20260504214127 76 226 5.0 10.0 0.00 0.00 0.00 42 1011.7
20260504214028 76 260 4.0 10.0 0.00 0.00 0.00 42 1011.7
20260504213940 76 255 3.0 9.0 0.00 0.00 0.00 42 1011.8
20260504213818 76 203 3.0 9.0 0.00 0.00 0.00 42 1011.7
20260504213728 76 219 3.0 9.0 0.00 0.00 0.00 42 1011.7
20260504213631 76 227 3.0 9.0 0.00 0.00 0.00 43 1011.6
20260504213600 76 243 2.0 9.0 0.00 0.00 0.00 43 1011.7
20260504213421 75 234 2.0 9.0 0.00 0.00 0.00 42 1011.7
20260504213332 75 247 3.0 9.0 0.00 0.00 0.00 43 1011.8
20260504213252 75 238 4.0 9.0 0.00 0.00 0.00 43 1011.8
20260504213118 75 245 2.0 8.0 0.00 0.00 0.00 43 1011.9
20260504213026 75 254 0.0 8.0 0.00 0.00 0.00 43 1011.9
20260504212928 75 224 0.0 6.0 0.00 0.00 0.00 43 1012.0
20260504212829 75 224 0.0 6.0 0.00 0.00 0.00 42 1012.0
20260504212738 76 224 1.0 6.0 0.00 0.00 0.00 42 1012.0
20260504212618 76 223 2.0 6.0 0.00 0.00 0.00 43 1012.1
20260504212524 76 222 1.0 6.0 0.00 0.00 0.00 43 1012.2
20260504212434 76 210 1.0 6.0 0.00 0.00 0.00 43 1012.2
20260504212315 76 210 2.0 6.0 0.00 0.00 0.00 43 1012.3
20260504212245 76 250 2.0 6.0 0.00 0.00 0.00 42 1012.3
20260504212126 76 249 0.0 3.0 0.00 0.00 0.00 43 1012.4
20260504212028 76 249 0.0 0.0 0.00 0.00 0.00 44 1012.3
20260504211940 75 247 0.0 0.0 0.00 0.00 0.00 43 1012.3
20260504211822 75 245 0.0 0.0 0.00 0.00 0.00 43 1012.4
20260504211722 75 250 0.0 0.0 0.00 0.00 0.00 43 1012.4
20260504211631 75 242 0.0 0.0 0.00 0.00 0.00 44 1012.4
20260504211553 75 242 0.0 0.0 0.00 0.00 0.00 43 1012.3
20260504211441 75 207 0.0 0.0 0.00 0.00 0.00 44 1012.3
20260504211322 75 243 0.0 0.0 0.00 0.00 0.00 44 1012.2
20260504211227 75 243 0.0 0.0 0.00 0.00 0.00 44 1012.1
20260504211156 75 243 0.0 0.0 0.00 0.00 0.00 44 1012.2
20260504211018 75 243 0.0 2.0 0.00 0.00 0.00 44 1012.2
20260504210947 75 243 0.0 2.0 0.00 0.00 0.00 45 1012.2
20260504210828 75 243 0.0 5.0 0.00 0.00 0.00 45 1012.2
20260504210736 75 243 0.0 7.0 0.00 0.00 0.00 45 1012.2
20260504210619 74 243 0.0 9.0 0.00 0.00 0.00 45 1012.2
20260504210525 74 243 0.0 9.0 0.00 0.00 0.00 45 1012.2
20260504210427 74 243 0.0 9.0 0.00 0.00 0.00 45 1012.2
20260504210335 74 233 0.0 9.0 0.00 0.00 0.00 45 1012.3
20260504210218 74 227 1.0 9.0 0.00 0.00 0.00 45 1012.3
20260504210120 75 222 2.0 9.0 0.00 0.00 0.00 44 1012.4
20260504210042 75 222 3.0 9.0 0.00 0.00 0.00 44 1012.4
20260504205953 75 198 4.0 9.0 0.00 0.00 0.00 44 1012.3
20260504205841 75 223 2.0 9.0 0.00 0.00 0.00 44 1012.3
20260504205723 75 254 0.0 7.0 0.00 0.00 0.00 45 1012.5
20260504205626 75 254 1.0 7.0 0.00 0.00 0.00 45 1012.4
20260504205533 75 255 1.0 7.0 0.00 0.00 0.00 45 1012.4
20260504205434 75 254 2.0 7.0 0.00 0.00 0.00 45 1012.4
20260504205320 75 261 2.0 7.0 0.00 0.00 0.00 45 1012.4
20260504205223 75 226 1.0 7.0 0.00 0.00 0.00 45 1012.3
20260504205130 74 281 2.0 7.0 0.00 0.00 0.00 45 1012.4
20260504205039 74 285 3.0 11.0 0.00 0.00 0.00 45 1012.4
20260504204942 74 281 3.0 11.0 0.00 0.00 0.00 45 1012.4
20260504204849 74 255 3.0 11.0 0.00 0.00 0.00 45 1012.4
20260504204730 75 277 3.0 11.0 0.00 0.00 0.00 45 1012.4
20260504204617 75 251 2.0 11.0 0.00 0.00 0.00 45 1012.5
20260504204518 75 251 2.0 11.0 0.00 0.00 0.00 45 1012.5
20260504204428 75 251 4.0 11.0 0.00 0.00 0.00 45 1012.5
20260504204328 75 251 5.0 11.0 0.00 0.00 0.00 45 1012.6
20260504204230 75 252 4.0 11.0 0.00 0.00 0.00 45 1012.6
20260504204139 75 207 3.0 11.0 0.00 0.00 0.00 45 1012.7
20260504204025 75 182 4.0 12.0 0.00 0.00 0.00 45 1012.7
20260504203927 74 229 4.0 12.0 0.00 0.00 0.00 46 1012.6
20260504203829 74 280 3.0 12.0 0.00 0.00 0.00 45 1012.5
20260504203737 74 240 3.0 12.0 0.00 0.00 0.00 45 1012.6
20260504203617 74 204 4.0 12.0 0.00 0.00 0.00 45 1012.6
20260504203524 74 282 4.0 12.0 0.00 0.00 0.00 45 1012.6
20260504203426 74 210 4.0 12.0 0.00 0.00 0.00 45 1012.6
20260504203339 74 264 4.0 12.0 0.00 0.00 0.00 45 1012.6
20260504203219 75 237 5.0 12.0 0.00 0.00 0.00 45 1012.6
20260504203121 75 234 3.0 11.0 0.00 0.00 0.00 45 1012.7
20260504203030 75 257 4.0 11.0 0.00 0.00 0.00 45 1012.7
20260504202931 74 262 5.0 11.0 0.00 0.00 0.00 45 1012.7
20260504202839 75 231 5.0 11.0 0.00 0.00 0.00 45 1012.6
20260504202719 74 265 3.0 11.0 0.00 0.00 0.00 45 1012.7
20260504202625 74 241 3.0 11.0 0.00 0.00 0.00 45 1012.8
20260504202527 74 298 4.0 11.0 0.00 0.00 0.00 44 1012.8
20260504202435 75 245 5.0 11.0 0.00 0.00 0.00 44 1012.8
20260504202318 75 223 6.0 11.0 0.00 0.00 0.00 44 1012.7
20260504202220 75 279 6.0 11.0 0.00 0.00 0.00 44 1012.8
20260504202122 75 291 4.0 10.0 0.00 0.00 0.00 44 1012.8
20260504202035 75 283 4.0 10.0 0.00 0.00 0.00 43 1012.8
20260504201918 75 244 5.0 10.0 0.00 0.00 0.00 44 1012.7
20260504201846 75 295 4.0 10.0 0.00 0.00 0.00 43 1012.6
20260504201727 75 250 3.0 10.0 0.00 0.00 0.00 43 1012.7
20260504201656 75 248 3.0 10.0 0.00 0.00 0.00 43 1012.8
20260504201517 75 270 5.0 10.0 0.00 0.00 0.00 43 1012.8
20260504201423 75 261 4.0 10.0 0.00 0.00 0.00 43 1012.8
20260504201325 75 255 2.0 10.0 0.00 0.00 0.00 44 1012.9
20260504201234 75 276 4.0 10.0 0.00 0.00 0.00 43 1012.9
20260504201135 75 250 5.0 10.0 0.00 0.00 0.00 43 1012.9
20260504201017 75 276 3.0 12.0 0.00 0.00 0.00 44 1012.9
20260504200925 75 218 3.0 12.0 0.00 0.00 0.00 44 1012.8
20260504200826 74 240 3.0 12.0 0.00 0.00 0.00 43 1012.8
20260504200732 74 259 3.0 12.0 0.00 0.00 0.00 44 1012.9
20260504200641 74 271 3.0 12.0 0.00 0.00 0.00 43 1012.9
20260504200523 74 269 3.0 12.0 0.00 0.00 0.00 44 1012.9
20260504200425 74 249 3.0 12.0 0.00 0.00 0.00 43 1012.9
20260504200327 74 262 4.0 12.0 0.00 0.00 0.00 43 1012.8
20260504200216 74 256 4.0 10.0 0.00 0.00 0.00 44 1012.8
20260504200121 74 239 4.0 10.0 0.00 0.00 0.00 43 1012.8
20260504200043 74 262 4.0 10.0 0.00 0.00 0.00 43 1012.8
20260504195931 74 269 2.0 10.0 0.00 0.00 0.00 43 1012.7
20260504195839 74 280 4.0 10.0 0.00 0.00 0.00 43 1012.7
20260504195721 74 288 3.0 10.0 0.00 0.00 0.00 43 1012.6
20260504195631 74 270 2.0 10.0 0.00 0.00 0.00 44 1012.7
20260504195553 74 276 1.0 10.0 0.00 0.00 0.00 44 1012.7
20260504195418 74 229 3.0 10.0 0.00 0.00 0.00 44 1012.8
20260504195326 74 248 4.0 10.0 0.00 0.00 0.00 44 1012.9
20260504195228 74 224 4.0 10.0 0.00 0.00 0.00 44 1013.0
20260504195116 74 281 3.0 8.0 0.00 0.00 0.00 44 1013.0
20260504195018 74 232 3.0 8.0 0.00 0.00 0.00 44 1012.9
20260504194921 74 215 2.0 8.0 0.00 0.00 0.00 44 1012.9
20260504194829 74 250 3.0 8.0 0.00 0.00 0.00 45 1012.8
20260504194804 74 250 3.0 8.0 0.00 0.00 0.00 44 1012.8
20260504194617 74 243 3.0 9.0 0.00 0.00 0.00 44 1012.7
20260504194527 74 210 3.0 10.0 0.00 0.00 0.00 44 1012.6
20260504194430 74 259 2.0 10.0 0.00 0.00 0.00 44 1012.5
20260504194339 74 219 2.0 10.0 0.00 0.00 0.00 44 1012.5
20260504194220 73 219 1.0 10.0 0.00 0.00 0.00 44 1012.6
20260504194146 74 259 1.0 10.0 0.00 0.00 0.00 45 1012.5
20260504194054 73 232 1.0 10.0 0.00 0.00 0.00 44 1012.6
20260504193934 73 233 2.0 10.0 0.00 0.00 0.00 45 1012.6
20260504193817 73 229 3.0 10.0 0.00 0.00 0.00 45 1012.8
20260504193726 73 245 3.0 10.0 0.00 0.00 0.00 45 1012.7
20260504193648 73 296 2.0 8.0 0.00 0.00 0.00 44 1012.6
20260504193536 73 257 2.0 8.0 0.00 0.00 0.00 44 1012.6
20260504193423 73 255 2.0 8.0 0.00 0.00 0.00 44 1012.5
20260504193325 73 256 1.0 8.0 0.00 0.00 0.00 44 1012.6
20260504193227 73 250 2.0 8.0 0.00 0.00 0.00 44 1012.6
20260504193135 74 240 2.0 8.0 0.00 0.00 0.00 44 1012.7
20260504193018 74 248 2.0 8.0 0.00 0.00 0.00 44 1012.6
20260504192948 74 256 2.0 8.0 0.00 0.00 0.00 44 1012.6
20260504192830 74 254 2.0 8.0 0.00 0.00 0.00 44 1012.6
20260504192716 73 252 2.0 8.0 0.00 0.00 0.00 45 1012.6
20260504192625 73 252 1.0 7.0 0.00 0.00 0.00 44 1012.6
20260504192527 73 252 1.0 7.0 0.00 0.00 0.00 44 1012.7
20260504192456 73 252 1.0 7.0 0.00 0.00 0.00 44 1012.8
20260504192336 73 233 1.0 7.0 0.00 0.00 0.00 45 1012.9
20260504192235 73 233 2.0 7.0 0.00 0.00 0.00 45 1012.9
20260504192116 73 269 1.0 7.0 0.00 0.00 0.00 44 1012.8
20260504192050 73 234 2.0 7.0 0.00 0.00 0.00 44 1012.8
20260504191959 73 224 3.0 7.0 0.00 0.00 0.00 44 1012.8
20260504191819 73 231 2.0 8.0 0.00 0.00 0.00 44 1012.6
20260504191719 73 251 2.0 8.0 0.00 0.00 0.00 45 1012.6
20260504191628 73 238 2.0 8.0 0.00 0.00 0.00 45 1012.5
20260504191530 73 219 3.0 8.0 0.00 0.00 0.00 45 1012.5
20260504191432 73 228 3.0 8.0 0.00 0.00 0.00 44 1012.4
20260504191319 73 252 2.0 9.0 0.00 0.00 0.00 45 1012.4
20260504191228 73 226 2.0 9.0 0.00 0.00 0.00 44 1012.3
20260504191021 73 219 3.0 9.0 0.00 0.00 0.00 44 1012.4
20260504190925 73 224 2.0 9.0 0.00 0.00 0.00 44 1012.4
20260504190833 73 246 2.0 9.0 0.00 0.00 0.00 45 1012.5
20260504190729 73 257 2.0 9.0 0.00 0.00 0.00 44 1012.6
20260504190631 73 221 3.0 9.0 0.00 0.00 0.00 44 1012.8
20260504190541 73 215 3.0 9.0 0.00 0.00 0.00 44 1012.8
20260504190423 73 221 2.0 9.0 0.00 0.00 0.00 45 1012.9
20260504190325 73 232 3.0 9.0 0.00 0.00 0.00 45 1012.9
20260504190233 73 271 2.0 6.0 0.00 0.00 0.00 45 1012.9
20260504190118 73 262 2.0 8.0 0.00 0.00 0.00 45 1012.9
20260504190031 73 249 2.0 8.0 0.00 0.00 0.00 45 1013.0
20260504185930 73 244 1.0 8.0 0.00 0.00 0.00 45 1012.9
20260504185832 73 248 0.0 10.0 0.00 0.00 0.00 45 1012.9
20260504185734 73 239 0.0 10.0 0.00 0.00 0.00 45 1013.0
20260504185617 73 245 0.0 10.0 0.00 0.00 0.00 45 1013.0
20260504185530 73 280 1.0 11.0 0.00 0.00 0.00 45 1012.9
20260504185432 73 254 3.0 11.0 0.00 0.00 0.00 45 1012.9
20260504185341 73 233 3.0 11.0 0.00 0.00 0.00 45 1012.9
20260504185224 73 241 2.0 11.0 0.00 0.00 0.00 45 1012.9
20260504185125 73 266 3.0 11.0 0.00 0.00 0.00 45 1012.9
20260504185028 73 258 3.0 11.0 0.00 0.00 0.00 45 1012.9
20260504184942 73 288 3.0 11.0 0.00 0.00 0.00 46 1012.9
20260504184844 73 264 5.0 11.0 0.00 0.00 0.00 45 1012.9
20260504184752 73 264 5.0 11.0 0.00 0.00 0.00 45 1012.8
20260504184632 73 274 2.0 11.0 0.00 0.00 0.00 45 1012.7
20260504184535 73 255 1.0 11.0 0.00 0.00 0.00 46 1012.7
20260504184417 73 244 0.0 3.0 0.00 0.00 0.00 46 1012.7
20260504184324 73 244 0.0 3.0 0.00 0.00 0.00 46 1012.7
20260504184236 73 244 0.0 3.0 0.00 0.00 0.00 46 1012.7
20260504184138 73 239 0.0 3.0 0.00 0.00 0.00 46 1012.6
20260504184025 73 231 0.0 3.0 0.00 0.00 0.00 46 1012.6
20260504183927 73 222 0.0 3.0 0.00 0.00 0.00 47 1012.6
20260504183829 73 222 0.0 3.0 0.00 0.00 0.00 46 1012.6
20260504183739 73 248 0.0 3.0 0.00 0.00 0.00 47 1012.7
20260504183621 73 265 0.0 3.0 0.00 0.00 0.00 46 1012.7
20260504183524 73 240 0.0 3.0 0.00 0.00 0.00 46 1012.7
20260504183431 73 234 0.0 5.0 0.00 0.00 0.00 46 1012.8
20260504183333 73 230 0.0 8.0 0.00 0.00 0.00 47 1012.7
20260504183302 73 252 0.0 9.0 0.00 0.00 0.00 47 1012.7
20260504183122 73 252 0.0 9.0 0.00 0.00 0.00 47 1012.6
20260504183024 73 251 0.0 9.0 0.00 0.00 0.00 47 1012.6
20260504182917 73 252 0.0 9.0 0.00 0.00 0.00 47 1012.6
20260504182818 72 252 0.0 9.0 0.00 0.00 0.00 47 1012.6
20260504182721 72 255 1.0 9.0 0.00 0.00 0.00 47 1012.6
20260504182651 72 255 2.0 9.0 0.00 0.00 0.00 47 1012.5
20260504182531 72 259 3.0 9.0 0.00 0.00 0.00 47 1012.7
20260504182441 72 212 5.0 9.0 0.00 0.00 0.00 47 1012.7
20260504182321 72 269 5.0 9.0 0.00 0.00 0.00 47 1012.7
20260504182226 72 246 5.0 9.0 0.00 0.00 0.00 47 1012.7
20260504182136 72 259 5.0 9.0 0.00 0.00 0.00 47 1012.7
20260504182018 72 218 4.0 9.0 0.00 0.00 0.00 47 1012.7
20260504181920 72 264 2.0 9.0 0.00 0.00 0.00 48 1012.7
20260504181849 72 264 1.0 7.0 0.00 0.00 0.00 48 1012.7
20260504181729 72 264 0.0 7.0 0.00 0.00 0.00 47 1012.6
20260504181638 72 264 0.0 7.0 0.00 0.00 0.00 48 1012.6
20260504181523 72 264 0.0 7.0 0.00 0.00 0.00 48 1012.5
20260504181425 72 264 2.0 7.0 0.00 0.00 0.00 48 1012.6
20260504181327 72 265 3.0 9.0 0.00 0.00 0.00 48 1012.5
20260504181235 73 267 2.0 9.0 0.00 0.00 0.00 48 1012.6
20260504181118 73 278 2.0 9.0 0.00 0.00 0.00 48 1012.7
20260504181020 73 283 2.0 9.0 0.00 0.00 0.00 48 1012.7
20260504180934 73 283 2.0 9.0 0.00 0.00 0.00 48 1012.8
20260504180835 73 286 1.0 9.0 0.00 0.00 0.00 48 1012.9
20260504180717 73 287 1.0 9.0 0.00 0.00 0.00 48 1013.0
20260504180619 73 287 4.0 9.0 0.00 0.00 0.00 48 1013.0
20260504180527 73 288 4.0 9.0 0.00 0.00 0.00 48 1013.0
20260504180428 73 235 3.0 9.0 0.00 0.00 0.00 48 1013.2
20260504180342 73 208 2.0 10.0 0.00 0.00 0.00 49 1013.2
20260504180223 72 186 2.0 10.0 0.00 0.00 0.00 49 1013.3
20260504180125 72 172 2.0 10.0 0.00 0.00 0.00 49 1013.3
20260504180046 72 172 3.0 10.0 0.00 0.00 0.00 49 1013.3
20260504175917 72 247 3.0 10.0 0.00 0.00 0.00 49 1013.1
20260504175848 72 212 1.0 10.0 0.00 0.00 0.00 49 1013.1
20260504175748 72 239 2.0 10.0 0.00 0.00 0.00 49 1013.2
20260504175641 72 265 4.0 10.0 0.00 0.00 0.00 48 1013.2
20260504175523 72 224 6.0 10.0 0.00 0.00 0.00 48 1013.4
20260504175423 72 247 4.0 12.0 0.00 0.00 0.00 49 1013.4
20260504175353 72 262 3.0 12.0 0.00 0.00 0.00 49 1013.4
20260504175300 72 229 3.0 12.0 0.00 0.00 0.00 49 1013.3
20260504175121 72 269 4.0 12.0 0.00 0.00 0.00 49 1013.3
20260504175023 72 210 3.0 12.0 0.00 0.00 0.00 49 1013.2
20260504174936 72 221 3.0 12.0 0.00 0.00 0.00 49 1013.2
20260504174835 72 212 4.0 12.0 0.00 0.00 0.00 49 1013.2
20260504174716 72 264 4.0 12.0 0.00 0.00 0.00 49 1013.2
20260504174624 72 197 4.0 12.0 0.00 0.00 0.00 50 1013.2
20260504174526 72 254 4.0 12.0 0.00 0.00 0.00 50 1013.2
20260504174455 72 246 5.0 12.0 0.00 0.00 0.00 50 1013.1
20260504174356 72 252 6.0 12.0 0.00 0.00 0.00 49 1013.0
20260504174221 72 225 6.0 10.0 0.00 0.00 0.00 49 1013.0
20260504174130 72 224 6.0 13.0 0.00 0.00 0.00 49 1013.0
20260504174033 72 226 5.0 13.0 0.00 0.00 0.00 49 1012.9
20260504173935 72 227 5.0 13.0 0.00 0.00 0.00 49 1012.9
20260504173816 72 228 6.0 13.0 0.00 0.00 0.00 49 1013.1
20260504173725 72 248 5.0 13.0 0.00 0.00 0.00 50 1013.0
20260504173627 72 197 3.0 13.0 0.00 0.00 0.00 50 1012.9
20260504173520 72 207 3.0 13.0 0.00 0.00 0.00 50 1012.9
20260504173427 72 260 5.0 13.0 0.00 0.00 0.00 50 1012.8
20260504173317 72 222 5.0 13.0 0.00 0.00 0.00 50 1012.9
20260504173220 72 232 5.0 11.0 0.00 0.00 0.00 50 1012.9
20260504173128 72 276 5.0 11.0 0.00 0.00 0.00 51 1012.9
20260504173031 72 258 3.0 11.0 0.00 0.00 0.00 51 1012.8
20260504172916 72 269 3.0 9.0 0.00 0.00 0.00 51 1012.7
20260504172818 71 245 3.0 9.0 0.00 0.00 0.00 51 1012.7
20260504172727 71 240 2.0 9.0 0.00 0.00 0.00 51 1012.6
20260504172629 71 245 1.0 6.0 0.00 0.00 0.00 51 1012.5
20260504172529 71 259 0.0 5.0 0.00 0.00 0.00 51 1012.5
20260504172439 71 259 0.0 5.0 0.00 0.00 0.00 51 1012.3
20260504172324 71 210 0.0 5.0 0.00 0.00 0.00 51 1012.2
20260504172233 71 267 0.0 5.0 0.00 0.00 0.00 51 1012.1
20260504172131 71 269 1.0 5.0 0.00 0.00 0.00 51 1012.0
20260504172040 71 269 1.0 5.0 0.00 0.00 0.00 51 1012.2
20260504171940 71 222 0.0 1.0 0.00 0.00 0.00 51 1012.0
20260504171848 71 222 0.0 1.0 0.00 0.00 0.00 51 1012.1
20260504171749 71 222 0.0 1.0 0.00 0.00 0.00 51 1012.0
20260504171637 71 222 0.0 1.0 0.00 0.00 0.00 51 1012.0
20260504171518 71 222 0.0 1.0 0.00 0.00 0.00 51 1012.1
20260504171430 71 222 0.0 1.0 0.00 0.00 0.00 51 1012.2
20260504171331 71 222 0.0 1.0 0.00 0.00 0.00 52 1012.2
20260504171231 71 222 0.0 1.0 0.00 0.00 0.00 52 1012.1
20260504171141 71 223 0.0 2.0 0.00 0.00 0.00 52 1012.1
20260504171021 71 222 0.0 2.0 0.00 0.00 0.00 52 1012.2
20260504170923 71 194 0.0 2.0 0.00 0.00 0.00 51 1012.2
20260504170829 71 186 0.0 2.0 0.00 0.00 0.00 51 1012.3
20260504170804 71 179 0.0 2.0 0.00 0.00 0.00 51 1012.3
20260504170624 71 208 0.0 4.0 0.00 0.00 0.00 51 1012.4
20260504170526 71 176 0.0 4.0 0.00 0.00 0.00 51 1012.4
20260504170429 71 217 0.0 4.0 0.00 0.00 0.00 52 1012.6
20260504170339 71 215 0.0 4.0 0.00 0.00 0.00 51 1012.6
20260504170220 71 214 0.0 4.0 0.00 0.00 0.00 51 1012.6
20260504170146 71 223 0.0 4.0 0.00 0.00 0.00 51 1012.7
20260504160424 70 244 7.0 13.0 0.00 0.00 0.00 54 1012.6
20260504160326 70 219 6.0 13.0 0.00 0.00 0.00 54 1012.7
20260504160254 70 249 3.0 11.0 0.00 0.00 0.00 55 1012.6
20260504160119 70 240 1.0 11.0 0.00 0.00 0.00 55 1012.6
20260504151131 70 243 4.0 12.0 0.00 0.00 0.00 52 1012.5
20260504151034 70 212 5.0 12.0 0.00 0.00 0.00 52 1012.5
20260504150921 70 253 5.0 12.0 0.00 0.00 0.00 52 1012.5
20260504150850 70 261 6.0 12.0 0.00 0.00 0.00 52 1012.4
20260504150731 71 245 5.0 12.0 0.00 0.00 0.00 52 1012.4
20260504150641 71 233 4.0 12.0 0.00 0.00 0.00 52 1012.4
20260504150522 71 245 7.0 12.0 0.00 0.00 0.00 51 1012.3
20260504150444 71 281 6.0 12.0 0.00 0.00 0.00 52 1012.3
20260504150333 71 246 4.0 12.0 0.00 0.00 0.00 51 1012.3
20260504150238 71 255 4.0 12.0 0.00 0.00 0.00 51 1012.3
20260504150126 71 255 5.0 12.0 0.00 0.00 0.00 51 1012.3
20260504141219 72 240 1.0 3.0 0.00 0.00 0.00 45 1011.3
20260504141121 72 240 1.0 3.0 0.00 0.00 0.00 45 1011.3
20260504141023 72 240 0.0 3.0 0.00 0.00 0.00 45 1011.3
20260504140917 72 240 1.0 3.0 0.00 0.00 0.00 45 1011.3
20260504140819 72 240 1.0 3.0 0.00 0.00 0.00 45 1011.2
20260504140748 72 240 0.0 3.0 0.00 0.00 0.00 45 1011.2
20260504140629 72 240 0.0 3.0 0.00 0.00 0.00 45 1011.1
20260504140531 72 240 0.0 3.0 0.00 0.00 0.00 45 1011.1
20260504140440 72 240 1.0 3.0 0.00 0.00 0.00 44 1011.0
20260504140341 72 240 1.0 3.0 0.00 0.00 0.00 44 1011.0
20260504140252 72 240 1.0 8.0 0.00 0.00 0.00 44 1011.0
20260504140141 72 241 1.0 8.0 0.00 0.00 0.00 44 1011.0
20260504130716 72 210 0.0 0.0 0.00 0.00 0.00 41 1010.8
20260504130618 72 229 0.0 0.0 0.00 0.00 0.00 42 1010.8
20260504130547 72 229 0.0 0.0 0.00 0.00 0.00 42 1010.7
20260504130432 72 229 0.0 0.0 0.00 0.00 0.00 42 1010.7
20260504130318 72 229 0.0 0.0 0.00 0.00 0.00 43 1010.7
20260504130239 72 229 0.0 0.0 0.00 0.00 0.00 42 1010.7
20260504130126 72 228 0.0 0.0 0.00 0.00 0.00 42 1010.6
20260504120316 73 251 0.0 0.0 0.00 0.00 0.00 41 1010.2
20260504120219 73 251 0.0 0.0 0.00 0.00 0.00 41 1010.1
20260504120121 73 251 0.0 0.0 0.00 0.00 0.00 41 1010.1
20260504110633 73 254 0.0 1.0 0.00 0.00 0.00 40 1010.4
20260504110518 73 254 0.0 1.0 0.00 0.00 0.00 40 1010.3
20260504110440 73 254 0.0 1.0 0.00 0.00 0.00 40 1010.3
20260504110327 73 254 0.0 1.0 0.00 0.00 0.00 40 1010.3
20260504110229 73 254 0.0 1.0 0.00 0.00 0.00 40 1010.3
20260504110139 73 254 0.0 1.0 0.00 0.00 0.00 40 1010.3
20260504100520 74 255 0.0 0.0 0.00 0.00 0.00 40 1010.2
20260504100429 74 255 0.0 0.0 0.00 0.00 0.00 39 1010.1
20260504100329 74 255 0.0 0.0 0.00 0.00 0.00 40 1010.0
20260504100240 74 255 0.0 0.0 0.00 0.00 0.00 40 1010.0
20260504100125 74 255 0.0 0.0 0.00 0.00 0.00 40 1010.0
20260504081947 77 255 1.0 6.0 0.00 0.00 0.00 37 1009.6
20260504081835 77 255 1.0 6.0 0.00 0.00 0.00 37 1009.6
20260504081716 77 255 1.0 6.0 0.00 0.00 0.00 37 1009.7
20260504081623 77 255 1.0 6.0 0.00 0.00 0.00 37 1009.7
20260504081552 77 245 1.0 6.0 0.00 0.00 0.00 37 1009.7
20260504081433 77 245 1.0 7.0 0.00 0.00 0.00 37 1009.6
20260504081335 77 247 1.0 7.0 0.00 0.00 0.00 37 1009.7
20260504081217 77 253 1.0 7.0 0.00 0.00 0.00 37 1009.8
20260504081127 77 252 1.0 7.0 0.00 0.00 0.00 37 1009.8
20260504081029 77 253 1.0 7.0 0.00 0.00 0.00 37 1009.7
20260504080943 77 252 1.0 7.0 0.00 0.00 0.00 37 1009.7
20260504080843 77 253 1.0 7.0 0.00 0.00 0.00 37 1009.8
20260504080723 77 252 2.0 7.0 0.00 0.00 0.00 37 1009.7
20260504080632 78 252 1.0 5.0 0.00 0.00 0.00 36 1009.8
20260504080533 78 252 1.0 4.0 0.00 0.00 0.00 36 1009.7
20260504080359 78 252 1.0 4.0 0.00 0.00 0.00 36 1009.8
20260504080219 78 252 1.0 4.0 0.00 0.00 0.00 36 1009.7
20260504080122 78 252 1.0 4.0 0.00 0.00 0.00 36 1009.8
20260504070320 79 186 0.0 3.0 0.00 0.00 0.00 33 1009.7
20260504070230 79 186 0.0 3.0 0.00 0.00 0.00 33 1009.8
20260504070138 79 186 0.0 3.0 0.00 0.00 0.00 33 1009.8
20260504060243 80 184 0.0 2.0 0.00 0.00 0.00 31 1009.2
20260504060124 80 184 0.0 2.0 0.00 0.00 0.00 31 1009.3
20260504060105 80 184 0.0 2.0 0.00 0.00 0.00 31 1009.3
20260504050719 81 214 4.0 10.0 0.00 0.00 0.00 27 1009.2
20260504050620 81 214 5.0 10.0 0.00 0.00 0.00 27 1009.2
20260504050550 81 216 3.0 10.0 0.00 0.00 0.00 27 1009.3
20260504050431 81 215 2.0 11.0 0.00 0.00 0.00 27 1009.4
20260504050333 81 211 2.0 11.0 0.00 0.00 0.00 27 1009.4
20260504050221 81 205 2.0 11.0 0.00 0.00 0.00 27 1009.3
20260504050141 81 217 3.0 11.0 0.00 0.00 0.00 27 1009.3
20260504045935 81 226 2.0 11.0 0.00 0.00 0.00 27 1009.3
20260504045816 81 224 5.0 11.0 0.00 0.00 0.00 27 1009.3
20260504045726 81 226 5.0 11.0 0.00 0.00 0.00 26 1009.3
20260504045627 81 203 5.0 11.0 0.00 0.00 0.00 26 1009.2
20260504045529 81 241 4.0 11.0 0.00 0.00 0.00 26 1009.2
20260504045415 82 266 4.0 11.0 0.00 0.00 0.00 26 1009.1
20260504045324 81 184 4.0 11.0 0.00 0.00 0.00 26 1009.2
20260504045227 82 238 4.0 11.0 0.00 0.00 0.00 26 1009.1
20260504045129 82 215 5.0 11.0 0.00 0.00 0.00 26 1009.1
20260504045038 82 224 4.0 11.0 0.00 0.00 0.00 26 1009.0
20260504044918 82 224 3.0 10.0 0.00 0.00 0.00 26 1009.0
20260504044832 82 204 3.0 10.0 0.00 0.00 0.00 26 1009.1
20260504044735 82 205 2.0 10.0 0.00 0.00 0.00 26 1009.2
20260504044617 82 206 3.0 10.0 0.00 0.00 0.00 26 1009.3
20260504044519 82 202 4.0 10.0 0.00 0.00 0.00 26 1009.2
20260504044427 82 214 4.0 10.0 0.00 0.00 0.00 26 1009.2
20260504044329 82 203 4.0 10.0 0.00 0.00 0.00 26 1009.2
20260504044259 82 207 5.0 9.0 0.00 0.00 0.00 26 1009.2
20260504044143 82 248 5.0 9.0 0.00 0.00 0.00 26 1009.1
20260504044024 82 228 4.0 9.0 0.00 0.00 0.00 26 1009.1
20260504043933 82 216 4.0 9.0 0.00 0.00 0.00 25 1009.1
20260504043816 82 207 4.0 10.0 0.00 0.00 0.00 25 1009.2
20260504043718 82 190 2.0 14.0 0.00 0.00 0.00 25 1009.2
20260504043619 82 194 2.0 15.0 0.00 0.00 0.00 25 1009.2
20260504043532 82 193 4.0 15.0 0.00 0.00 0.00 25 1009.1
20260504043433 82 188 4.0 15.0 0.00 0.00 0.00 25 1009.2
20260504043316 82 203 3.0 15.0 0.00 0.00 0.00 25 1009.1
20260504043224 82 200 4.0 15.0 0.00 0.00 0.00 25 1009.0
20260504043125 82 211 4.0 15.0 0.00 0.00 0.00 25 1009.0
20260504043035 82 217 6.0 15.0 0.00 0.00 0.00 25 1009.0
20260504042920 82 229 8.0 15.0 0.00 0.00 0.00 25 1009.1
20260504042823 82 211 5.0 15.0 0.00 0.00 0.00 24 1009.0
20260504042725 82 224 5.0 14.0 0.00 0.00 0.00 24 1009.1
20260504042655 82 234 5.0 14.0 0.00 0.00 0.00 24 1009.1
20260504042543 82 221 6.0 14.0 0.00 0.00 0.00 24 1009.1
20260504042443 82 212 5.0 14.0 0.00 0.00 0.00 24 1009.1
20260504042325 82 217 7.0 14.0 0.00 0.00 0.00 24 1009.0
20260504042218 82 203 7.0 14.0 0.00 0.00 0.00 23 1009.1
20260504042147 82 257 6.0 12.0 0.00 0.00 0.00 23 1009.1
20260504042028 82 203 5.0 12.0 0.00 0.00 0.00 23 1009.0
20260504041931 82 209 4.0 12.0 0.00 0.00 0.00 23 1009.0
20260504041840 82 231 3.0 12.0 0.00 0.00 0.00 22 1009.0
20260504041722 83 221 0.0 13.0 0.00 0.00 0.00 22 1008.9
20260504041623 82 181 0.0 13.0 0.00 0.00 0.00 22 1008.9
20260504041530 83 237 0.0 13.0 0.00 0.00 0.00 22 1008.8
20260504041417 83 217 0.0 13.0 0.00 0.00 0.00 22 1008.8
20260504041317 83 185 1.0 13.0 0.00 0.00 0.00 22 1008.9
20260504041219 83 224 1.0 13.0 0.00 0.00 0.00 22 1008.9
20260504041128 83 192 3.0 13.0 0.00 0.00 0.00 22 1008.8
20260504041030 83 229 5.0 13.0 0.00 0.00 0.00 22 1008.8
20260504040917 83 224 6.0 13.0 0.00 0.00 0.00 22 1008.8
20260504040826 83 207 3.0 11.0 0.00 0.00 0.00 22 1008.7
20260504040729 83 222 1.0 12.0 0.00 0.00 0.00 22 1008.8
20260504040632 83 212 3.0 12.0 0.00 0.00 0.00 22 1008.7
20260504040541 83 228 6.0 12.0 0.00 0.00 0.00 22 1008.6
20260504040422 83 263 5.0 12.0 0.00 0.00 0.00 21 1008.7
20260504040329 83 227 3.0 12.0 0.00 0.00 0.00 21 1008.6
20260504040231 83 212 5.0 12.0 0.00 0.00 0.00 21 1008.7
20260504040140 83 238 7.0 12.0 0.00 0.00 0.00 21 1008.5
20260504040033 83 195 7.0 12.0 0.00 0.00 0.00 21 1008.4
20260504035930 83 243 6.0 12.0 0.00 0.00 0.00 21 1008.6
20260504035832 83 238 5.0 10.0 0.00 0.00 0.00 21 1008.5
20260504035738 83 193 5.0 10.0 0.00 0.00 0.00 21 1008.6
20260504035647 83 234 3.0 9.0 0.00 0.00 0.00 21 1008.5
20260504035534 83 212 3.0 9.0 0.00 0.00 0.00 21 1008.5
20260504035416 83 198 2.0 9.0 0.00 0.00 0.00 21 1008.6
20260504035318 83 183 3.0 9.0 0.00 0.00 0.00 21 1008.6
20260504035246 83 216 3.0 9.0 0.00 0.00 0.00 21 1008.6
20260504035127 83 269 2.0 9.0 0.00 0.00 0.00 21 1008.5
20260504035030 83 226 1.0 6.0 0.00 0.00 0.00 21 1008.4
20260504034922 83 212 0.0 2.0 0.00 0.00 0.00 21 1008.4
20260504034821 83 211 0.0 1.0 0.00 0.00 0.00 21 1008.5
20260504034722 83 211 0.0 1.0 0.00 0.00 0.00 21 1008.5
20260504034632 83 211 0.0 1.0 0.00 0.00 0.00 21 1008.4
20260504034533 83 224 0.0 1.0 0.00 0.00 0.00 21 1008.4
20260504034420 83 246 0.0 5.0 0.00 0.00 0.00 20 1008.4
20260504034322 83 208 0.0 5.0 0.00 0.00 0.00 21 1008.4
20260504034232 83 211 0.0 5.0 0.00 0.00 0.00 20 1008.3
20260504034135 83 207 0.0 5.0 0.00 0.00 0.00 20 1008.3
20260504034037 83 222 0.0 5.0 0.00 0.00 0.00 20 1008.3
20260504033924 84 245 0.0 5.0 0.00 0.00 0.00 20 1008.3
20260504033847 84 246 0.0 5.0 0.00 0.00 0.00 20 1008.3
20260504033738 84 224 1.0 5.0 0.00 0.00 0.00 20 1008.3
20260504033618 84 229 1.0 5.0 0.00 0.00 0.00 20 1008.2
20260504033526 84 221 0.0 2.0 0.00 0.00 0.00 20 1008.3
20260504033429 84 247 0.0 2.0 0.00 0.00 0.00 20 1008.3
20260504033332 84 224 0.0 4.0 0.00 0.00 0.00 20 1008.1
20260504033240 84 240 0.0 5.0 0.00 0.00 0.00 20 1008.2
20260504033126 84 232 0.0 5.0 0.00 0.00 0.00 20 1008.1
20260504033028 84 256 0.0 5.0 0.00 0.00 0.00 20 1008.1
20260504032957 84 209 0.0 5.0 0.00 0.00 0.00 20 1008.1
20260504032818 84 222 0.0 11.0 0.00 0.00 0.00 20 1008.1
20260504032720 84 204 0.0 11.0 0.00 0.00 0.00 20 1008.1
20260504032623 84 241 0.0 11.0 0.00 0.00 0.00 20 1008.0
20260504032532 84 235 1.0 11.0 0.00 0.00 0.00 20 1007.9
20260504032419 84 202 0.0 11.0 0.00 0.00 0.00 20 1008.0
20260504032321 84 186 0.0 11.0 0.00 0.00 0.00 19 1007.9
20260504032223 84 241 0.0 12.0 0.00 0.00 0.00 19 1007.9
20260504032131 85 203 2.0 12.0 0.00 0.00 0.00 19 1007.8
20260504032033 85 192 5.0 12.0 0.00 0.00 0.00 19 1007.8
20260504031942 85 239 6.0 17.0 0.00 0.00 0.00 19 1007.8
20260504031828 85 231 5.0 17.0 0.00 0.00 0.00 19 1007.8
20260504031729 85 248 5.0 17.0 0.00 0.00 0.00 19 1007.8
20260504031618 85 199 6.0 17.0 0.00 0.00 0.00 18 1007.7
20260504031520 85 243 6.0 17.0 0.00 0.00 0.00 18 1007.7
20260504031428 85 254 5.0 17.0 0.00 0.00 0.00 18 1007.8
20260504031330 85 235 5.0 17.0 0.00 0.00 0.00 18 1007.8
20260504031216 85 233 5.0 17.0 0.00 0.00 0.00 17 1007.7
20260504031118 85 228 2.0 17.0 0.00 0.00 0.00 17 1007.7
20260504031026 85 228 1.0 17.0 0.00 0.00 0.00 17 1007.6
20260504030926 85 231 3.0 17.0 0.00 0.00 0.00 17 1007.7
20260504030828 85 256 3.0 17.0 0.00 0.00 0.00 17 1007.7
20260504030737 85 215 2.0 17.0 0.00 0.00 0.00 17 1007.7
20260504030623 85 224 6.0 17.0 0.00 0.00 0.00 17 1007.7
20260504030551 85 233 6.0 17.0 0.00 0.00 0.00 17 1007.7
20260504030433 85 260 4.0 15.0 0.00 0.00 0.00 17 1007.5
20260504030334 85 230 5.0 15.0 0.00 0.00 0.00 18 1007.5
20260504030222 85 263 6.0 15.0 0.00 0.00 0.00 18 1007.4
20260504030124 85 217 7.0 15.0 0.00 0.00 0.00 18 1007.5
20260504030043 86 219 5.0 15.0 0.00 0.00 0.00 18 1007.5
20260504025916 86 186 1.0 15.0 0.00 0.00 0.00 18 1007.3
20260504025845 86 247 1.0 15.0 0.00 0.00 0.00 18 1007.3
20260504025726 86 195 4.0 15.0 0.00 0.00 0.00 18 1007.3
20260504025628 86 251 5.0 15.0 0.00 0.00 0.00 17 1007.1
20260504025538 86 214 4.0 12.0 0.00 0.00 0.00 17 1007.1
20260504025420 86 251 1.0 12.0 0.00 0.00 0.00 18 1007.1
20260504025321 86 252 1.0 12.0 0.00 0.00 0.00 17 1007.1
20260504025254 86 219 3.0 12.0 0.00 0.00 0.00 17 1007.2
20260504025115 86 248 7.0 12.0 0.00 0.00 0.00 17 1007.2
20260504025017 86 210 5.0 12.0 0.00 0.00 0.00 17 1007.2
20260504024927 86 241 5.0 12.0 0.00 0.00 0.00 17 1007.2
20260504024829 86 183 6.0 13.0 0.00 0.00 0.00 17 1007.2
20260504024735 86 203 8.0 13.0 0.00 0.00 0.00 17 1007.3
20260504024637 86 205 4.0 13.0 0.00 0.00 0.00 17 1007.3
20260504024521 86 259 0.0 13.0 0.00 0.00 0.00 17 1007.2
20260504024429 86 223 0.0 13.0 0.00 0.00 0.00 17 1007.2
20260504024331 86 234 0.0 13.0 0.00 0.00 0.00 17 1007.1
20260504024241 86 209 1.0 13.0 0.00 0.00 0.00 17 1007.1
20260504024134 86 216 3.0 13.0 0.00 0.00 0.00 17 1007.2
20260504024035 86 226 6.0 13.0 0.00 0.00 0.00 17 1007.0
20260504023945 86 204 6.0 13.0 0.00 0.00 0.00 17 1007.0
20260504023849 86 213 5.0 17.0 0.00 0.00 0.00 17 1007.0
20260504023716 86 223 5.0 17.0 0.00 0.00 0.00 17 1006.9
20260504023645 86 219 6.0 17.0 0.00 0.00 0.00 17 1006.9
20260504023526 86 223 6.0 17.0 0.00 0.00 0.00 17 1006.9
20260504023428 87 211 6.0 17.0 0.00 0.00 0.00 17 1006.9
20260504023337 87 241 7.0 17.0 0.00 0.00 0.00 17 1006.9
20260504023218 87 226 8.0 17.0 0.00 0.00 0.00 17 1006.9
20260504023123 87 195 8.0 17.0 0.00 0.00 0.00 17 1006.8
20260504023033 87 245 8.0 17.0 0.00 0.00 0.00 17 1006.8
20260504022953 87 217 6.0 13.0 0.00 0.00 0.00 16 1006.7
20260504022819 87 224 4.0 13.0 0.00 0.00 0.00 16 1006.7
20260504022750 87 257 3.0 13.0 0.00 0.00 0.00 16 1006.6
20260504022650 87 212 4.0 13.0 0.00 0.00 0.00 16 1006.6
20260504022538 87 238 5.0 14.0 0.00 0.00 0.00 16 1006.5
20260504022419 87 227 7.0 15.0 0.00 0.00 0.00 16 1006.7
20260504022325 87 207 8.0 15.0 0.00 0.00 0.00 16 1006.6
20260504022233 87 228 7.0 15.0 0.00 0.00 0.00 16 1006.6
20260504022133 87 257 4.0 15.0 0.00 0.00 0.00 16 1006.7
20260504022015 87 243 3.0 15.0 0.00 0.00 0.00 16 1006.6
20260504021944 87 215 4.0 15.0 0.00 0.00 0.00 16 1006.5
20260504021824 87 220 4.0 15.0 0.00 0.00 0.00 15 1006.7
20260504021734 87 209 6.0 15.0 0.00 0.00 0.00 15 1006.6
20260504021621 87 200 7.0 15.0 0.00 0.00 0.00 16 1006.7
20260504021550 88 197 8.0 12.0 0.00 0.00 0.00 15 1006.6
20260504021428 88 241 7.0 12.0 0.00 0.00 0.00 15 1006.7
20260504021316 88 229 4.0 11.0 0.00 0.00 0.00 15 1006.6
20260504021217 88 248 4.0 10.0 0.00 0.00 0.00 15 1006.5
20260504021120 88 243 5.0 10.0 0.00 0.00 0.00 15 1006.5
20260504021022 88 271 4.0 10.0 0.00 0.00 0.00 15 1006.4
20260504020923 88 224 4.0 10.0 0.00 0.00 0.00 15 1006.5
20260504020834 88 238 5.0 12.0 0.00 0.00 0.00 15 1006.4
20260504020728 88 204 4.0 12.0 0.00 0.00 0.00 15 1006.3
20260504020637 88 207 4.0 12.0 0.00 0.00 0.00 15 1006.3
20260504020520 88 207 4.0 12.0 0.00 0.00 0.00 14 1006.3
20260504020422 88 215 4.0 12.0 0.00 0.00 0.00 14 1006.4
20260504020351 88 220 4.0 12.0 0.00 0.00 0.00 14 1006.4
20260504020254 88 220 6.0 12.0 0.00 0.00 0.00 14 1006.5
20260504020118 88 243 5.0 12.0 0.00 0.00 0.00 14 1006.5
20260504020031 88 208 3.0 12.0 0.00 0.00 0.00 14 1006.5
20260504015928 88 221 3.0 13.0 0.00 0.00 0.00 14 1006.5
20260504015831 88 220 3.0 13.0 0.00 0.00 0.00 14 1006.4
20260504015759 88 198 4.0 14.0 0.00 0.00 0.00 14 1006.5
20260504015619 88 210 5.0 14.0 0.00 0.00 0.00 14 1006.4
20260504015525 88 210 5.0 14.0 0.00 0.00 0.00 14 1006.4
20260504015427 89 232 7.0 14.0 0.00 0.00 0.00 14 1006.2
20260504015356 89 236 7.0 16.0 0.00 0.00 0.00 14 1006.1
20260504015217 89 257 7.0 16.0 0.00 0.00 0.00 14 1006.0
20260504015119 89 214 6.0 16.0 0.00 0.00 0.00 14 1006.1
20260504015026 89 265 6.0 16.0 0.00 0.00 0.00 14 1006.0
20260504014935 89 230 7.0 16.0 0.00 0.00 0.00 14 1006.0
20260504014821 89 198 6.0 16.0 0.00 0.00 0.00 14 1005.9
20260504014724 89 234 5.0 16.0 0.00 0.00 0.00 14 1006.0
20260504014633 89 205 6.0 17.0 0.00 0.00 0.00 14 1005.9
20260504014554 89 218 8.0 17.0 0.00 0.00 0.00 14 1005.9
20260504014442 89 217 7.0 17.0 0.00 0.00 0.00 15 1005.9
20260504014323 89 221 7.0 17.0 0.00 0.00 0.00 15 1005.9
20260504014225 89 214 8.0 17.0 0.00 0.00 0.00 15 1006.0
20260504014159 89 220 9.0 17.0 0.00 0.00 0.00 15 1006.0
20260504014019 89 212 8.0 17.0 0.00 0.00 0.00 15 1006.0
20260504013941 89 216 7.0 17.0 0.00 0.00 0.00 15 1005.8
20260504013827 89 232 9.0 17.0 0.00 0.00 0.00 15 1005.8
20260504013750 89 214 9.0 16.0 0.00 0.00 0.00 15 1005.8
20260504013639 89 228 8.0 16.0 0.00 0.00 0.00 15 1005.8
20260504013519 89 199 7.0 16.0 0.00 0.00 0.00 15 1005.9
20260504013424 90 217 6.0 15.0 0.00 0.00 0.00 15 1005.8
20260504013353 90 252 7.0 15.0 0.00 0.00 0.00 15 1005.8
20260504013240 90 244 6.0 15.0 0.00 0.00 0.00 15 1005.8
20260504013142 90 210 7.0 15.0 0.00 0.00 0.00 15 1005.8
20260504013050 90 236 9.0 15.0 0.00 0.00 0.00 15 1005.8
20260504012931 90 245 8.0 15.0 0.00 0.00 0.00 15 1005.8
20260504012833 90 217 6.0 15.0 0.00 0.00 0.00 16 1005.8
20260504012718 90 246 5.0 12.0 0.00 0.00 0.00 16 1005.8
20260504012627 90 225 4.0 12.0 0.00 0.00 0.00 16 1005.8
20260504012529 90 212 4.0 12.0 0.00 0.00 0.00 17 1005.8
20260504012432 90 207 4.0 12.0 0.00 0.00 0.00 17 1005.9
20260504012340 90 221 5.0 12.0 0.00 0.00 0.00 17 1005.8
20260504012223 90 210 6.0 12.0 0.00 0.00 0.00 17 1005.8
20260504012129 90 176 6.0 17.0 0.00 0.00 0.00 17 1005.8
20260504012031 90 207 5.0 17.0 0.00 0.00 0.00 17 1005.8
20260504011940 90 178 4.0 17.0 0.00 0.00 0.00 17 1005.8
20260504011823 90 202 3.0 17.0 0.00 0.00 0.00 17 1005.8
20260504011725 90 218 4.0 17.0 0.00 0.00 0.00 17 1005.8
20260504011627 90 255 6.0 17.0 0.00 0.00 0.00 17 1005.7
20260504011539 90 213 6.0 17.0 0.00 0.00 0.00 17 1005.8
20260504011420 91 224 7.0 17.0 0.00 0.00 0.00 17 1005.8
20260504011328 91 221 9.0 17.0 0.00 0.00 0.00 17 1005.8
20260504011230 91 220 6.0 13.0 0.00 0.00 0.00 16 1005.9
20260504011138 91 248 5.0 14.0 0.00 0.00 0.00 16 1005.9
20260504011019 91 210 5.0 15.0 0.00 0.00 0.00 16 1005.9
20260504010927 91 209 5.0 15.0 0.00 0.00 0.00 16 1005.9
20260504010848 91 231 5.0 15.0 0.00 0.00 0.00 16 1005.9
20260504010740 91 210 4.0 15.0 0.00 0.00 0.00 16 1005.9
20260504010622 91 214 7.0 15.0 0.00 0.00 0.00 16 1005.9
20260504010531 91 256 7.0 15.0 0.00 0.00 0.00 16 1005.9
20260504010432 91 236 8.0 15.0 0.00 0.00 0.00 16 1005.9
20260504010343 91 218 10.0 15.0 0.00 0.00 0.00 16 1005.9
20260504010225 92 219 9.0 16.0 0.00 0.00 0.00 16 1005.9
20260504010126 92 236 8.0 16.0 0.00 0.00 0.00 16 1005.9
20260504010053 92 255 8.0 16.0 0.00 0.00 0.00 16 1005.9
20260504005921 92 209 8.0 16.0 0.00 0.00 0.00 15 1005.9
20260504005849 92 210 6.0 18.0 0.00 0.00 0.00 15 1005.9
20260504005731 92 263 5.0 18.0 0.00 0.00 0.00 15 1005.9
20260504005659 92 260 6.0 18.0 0.00 0.00 0.00 15 1006.0
20260504005539 92 248 9.0 18.0 0.00 0.00 0.00 15 1005.9
20260504005420 92 235 8.0 18.0 0.00 0.00 0.00 15 1005.8
20260504005332 92 255 7.0 18.0 0.00 0.00 0.00 15 1005.8
20260504005235 93 238 8.0 18.0 0.00 0.00 0.00 15 1005.8
20260504005116 93 243 8.0 18.0 0.00 0.00 0.00 15 1005.9
20260504005023 93 221 7.0 18.0 0.00 0.00 0.00 15 1005.8
20260504004925 93 226 5.0 16.0 0.00 0.00 0.00 15 1005.9
20260504004827 93 203 4.0 15.0 0.00 0.00 0.00 15 1005.9
20260504004755 93 248 5.0 15.0 0.00 0.00 0.00 15 1005.9
20260504004620 93 248 5.0 15.0 0.00 0.00 0.00 15 1005.9
20260504004531 93 200 6.0 15.0 0.00 0.00 0.00 15 1005.9
20260504004431 93 207 7.0 15.0 0.00 0.00 0.00 15 1005.9
20260504004318 93 240 6.0 17.0 0.00 0.00 0.00 15 1006.0
20260504004220 93 231 7.0 17.0 0.00 0.00 0.00 15 1006.0
20260504004150 93 251 9.0 17.0 0.00 0.00 0.00 15 1006.0
20260504003920 93 214 8.0 17.0 0.00 0.00 0.00 15 1006.0
20260504003821 93 212 8.0 17.0 0.00 0.00 0.00 15 1006.1
20260504003731 93 230 8.0 17.0 0.00 0.00 0.00 15 1006.2
20260504003633 93 240 11.0 17.0 0.00 0.00 0.00 14 1006.2
20260504003534 93 287 9.0 17.0 0.00 0.00 0.00 14 1006.2
20260504003417 93 209 3.0 16.0 0.00 0.00 0.00 14 1006.1
20260504003329 93 227 2.0 16.0 0.00 0.00 0.00 14 1006.1
20260504003259 93 211 5.0 16.0 0.00 0.00 0.00 14 1006.0